CST,Max TemperatureF,Mean TemperatureF,Min TemperatureF,Max Dew PointF,MeanDew PointF,Min DewpointF,Max Humidity, Mean Humidity, Min Humidity, Max Sea Level PressureIn, Mean Sea Level PressureIn, Min Sea Level PressureIn, Max VisibilityMiles, Mean VisibilityMiles, Min VisibilityMiles, Max Wind SpeedMPH, Mean Wind SpeedMPH, Max Gust SpeedMPH,PrecipitationIn, CloudCover, Events, WindDirDegrees
2012-11-1,46,40,33,40,33,23,93,71,49,30.11,30.03,29.94,10,9,6,20,12,25,T,4,Rain,75
2012-11-2,41,34,27,30,26,23,85,72,59,30.15,30.05,29.92,10,10,10,18,6,22,T,5,,59
2012-11-3,47,37,26,36,32,25,92,76,60,30.23,30.18,30.10,10,10,10,16,6,18,0.00,6,,334
2012-11-4,37,30,23,34,30,21,100,91,82,30.23,30.15,30.06,10,9,6,12,4,14,0.06,7,Rain,90
2012-11-5,47,41,35,41,36,34,100,85,70,30.25,30.13,29.88,10,8,4,20,6,23,0.01,7,Rain,205
2012-11-6,56,43,30,37,28,22,82,54,26,30.14,30.09,29.98,10,10,10,33,15,41,0.00,0,,307
2012-11-7,66,44,22,29,26,19,92,58,24,30.12,29.93,29.70,10,10,10,28,11,31,0.00,0,,144
2012-11-8,50,42,33,37,31,27,79,68,56,30.05,29.96,29.70,10,10,10,24,13,29,0.00,3,,22
2012-11-9,40,36,31,39,33,30,100,91,82,30.04,29.86,29.66,10,9,2,22,15,26,0.00,8,,70
2012-11-10,42,31,19,41,29,13,100,92,84,29.89,29.67,29.56,10,2,0,37,17,45,0.08,8,Fog-Rain-Snow,336
2012-11-11,21,16,11,12,8,3,74,65,56,30.14,30.00,29.84,10,7,2,33,24,39,T,5,Snow,299
2012-11-12,31,23,15,18,13,7,84,71,57,30.29,30.24,30.14,10,10,10,28,12,33,0.00,1,,283
2012-11-13,36,25,14,29,20,13,100,85,70,30.27,30.23,30.17,10,7,1,10,3,13,0.00,4,,214
2012-11-14,46,33,20,33,27,21,100,79,58,30.25,30.16,30.08,10,9,2,13,4,13,0.00,1,,233
2012-11-15,43,34,24,29,25,20,92,71,49,30.47,30.38,30.17,10,10,10,15,7,17,0.00,0,,18
2012-11-16,62,44,26,31,26,20,78,54,30,30.41,30.15,30.00,10,10,10,24,13,31,0.00,0,,154
2012-11-17,58,45,31,35,33,28,96,68,40,30.00,29.97,29.92,10,10,10,12,6,14,0.00,0,,51
2012-11-18,66,45,24,38,30,23,100,65,29,30.00,29.89,29.78,10,6,0,15,7,20,0.00,2,Fog,114
2012-11-19,53,39,24,36,29,22,85,63,41,30.19,30.08,29.87,10,10,10,16,8,20,0.00,1,,300
2012-11-20,66,45,23,34,30,21,92,62,31,30.17,30.01,29.91,10,10,10,14,5,16,0.00,0,,124
2012-11-21,65,48,31,35,31,26,92,62,31,29.91,29.74,29.59,10,10,10,14,3,17,0.00,0,,206
2012-11-22,56,38,20,40,29,10,83,58,32,30.49,30.05,29.64,10,9,2,37,21,45,0.07,5,Rain-Snow,315
2012-11-23,30,23,15,18,13,10,81,66,50,30.62,30.50,30.29,10,10,10,26,10,33,0.00,1,,328
2012-11-24,48,35,22,34,21,15,74,59,43,30.24,29.97,29.85,10,10,10,21,10,25,0.00,1,,212
2012-11-25,37,30,23,28,23,13,85,72,59,30.30,30.10,29.99,10,10,10,20,9,24,0.00,4,,350
2012-11-26,31,20,9,19,11,5,88,69,50,30.53,30.41,30.29,10,10,10,17,7,21,0.00,1,,306
2012-11-27,39,27,14,26,19,12,100,75,50,30.30,30.21,30.16,10,10,10,13,4,16,0.00,0,,280
2012-11-28,44,29,13,23,18,12,92,66,40,30.30,30.14,30.01,10,8,0,13,4,15,0.00,0,Fog,182
2012-11-29,31,23,15,22,19,13,96,83,69,30.12,30.02,29.90,10,9,2,20,8,23,0.00,3,,51
2012-11-30,42,31,20,30,23,19,100,80,59,30.13,29.97,29.71,10,4,0,23,11,30,0.00,1,Fog,117